Regional Weather Roundup
Issued by NWS Albany, NY

Home | Current Version | Previous Version | Text Only | Print | Product List | Glossary On
Versions: 1 2 3 4 5 6 7 8 9 10 11 12 13 14 15 16 17 18 19 20 21 22 23 24 25 26 27 28 29 30 31 32 33 34 35 36 37 38 39 40 41 42 43 44 45 46 47 48 49 50
495
ASUS41 KALY 031110
RWRALY

NEW YORK STATE HOURLY WEATHER ROUNDUP
NATIONAL WEATHER SERVICE ALBANY NY
700 AM EDT TUE MAY 03 2016

NOTE: "FAIR" INDICATES FEW OR NO CLOUDS BELOW 12,000 FEET WITH NO
SIGNIFICANT WEATHER AND/OR NO OBSTRUCTIONS TO VISIBILITY.

NYZ032-033-038>043-046>054-057>066-NYZ062>081-082-084-031200-
EAST


CITY           SKY/WX    TMP DP  RH WIND       PRES   REMARKS
ALBANY         CLOUDY    46  42  86 N8        29.91S
GLENS FALLS    CLOUDY    45  41  86 NE3       29.92S
POUGHKEEPSIE   LGT RAIN  50  47  89 CALM      29.90R
NEWBURGH       LGT RAIN  48  48 100 E9        29.91R FOG
MONTGOMERY     LGT RAIN  49  47  93 E6        29.90R FOG
WHITE PLAINS   LGT RAIN  51  49  92 E6        29.88R FOG
ISLIP          LGT RAIN  52  50  93 N3        29.89R FOG
NEW YORK CITY  LGT RAIN  53  50  89 E8        29.87F
CENTRAL PARK   LGT RAIN  52  50  93 VRB6      29.90R FOG
$$

NYZ005>009-017-018-044>046-055-056-031200-
CENTRAL


CITY           SKY/WX    TMP DP  RH WIND       PRES   REMARKS
FULTON         FOG       44  42  93 N7        29.92F VSB 1/4
SYRACUSE       FOG       40  40 100 N3        29.92S VSB 1/8
ROME           FOG       40  40 100 CALM      29.93R VSB<1/4
ELMIRA         CLOUDY    45  40  82 NE3       29.90R
BINGHAMTON     CLOUDY    42  41  96 NE6       29.87S
MONTICELLO     CLOUDY    46  45  93 CALM      29.89R
$$

NYZ026>034-041>043-087-031200-
NORTH


CITY           SKY/WX    TMP DP  RH WIND       PRES   REMARKS
WATERTOWN      FOG       39  39 100 E7        29.94F VSB 1/4 WCI  34
FORT DRUM      NOT AVBL
MASSENA        FOG       32  32 100 CALM      29.98R VSB<1/4
SARANAC LAKE   SUNNY     35  33  92 CALM      29.90S
PLATTSBURGH    NOT AVBL
$$

NYZ001>004-010>016-019>021-085-031200-
WEST


CITY           SKY/WX    TMP DP  RH WIND       PRES   REMARKS
NIAGARA FALLS  MOCLDY    41  37  86 CALM      29.92S
BUFFALO        MOCLDY    43  41  93 NE5       29.92R
DUNKIRK        CLOUDY    41  40  96 E5        29.91S
JAMESTOWN      CLOUDY    43  39  87 N3        29.87S
WELLSVILLE     CLOUDY    42  40  92 NE3       29.88S FOG
ROCHESTER      CLOUDY    42  41  96 CALM      29.93S
PENN YAN       FOG       39  38  96 CALM      29.92R VSB 1/4
$$

             KEY
       WCI = WIND CHILL INDEX
       VSB = VISIBILITY
       HX  = HEAT INDEX
$$




USA.gov is the U.S. government's official web portal to all federal, state and local government web resources and services.